EDT,Max TemperatureF,Mean TemperatureF,Min TemperatureF,Max Dew PointF,MeanDew PointF,Min DewpointF,Max Humidity, Mean Humidity, Min Humidity, Max Sea Level PressureIn, Mean Sea Level PressureIn, Min Sea Level PressureIn, Max VisibilityMiles, Mean VisibilityMiles, Min VisibilityMiles, Max Wind SpeedMPH, Mean Wind SpeedMPH, Max Gust SpeedMPH,PrecipitationIn, CloudCover, Events, WindDirDegrees
2013-9-1,82,75,68,72,69,68,100,91,65,29.89,29.85,29.80,10,6,0,12,2,,0.00,5,Fog,224
2013-9-2,82,73,64,70,67,64,100,92,58,29.86,29.81,29.75,10,6,0,12,3,21,0.19,5,Fog-Rain-Thunderstorm,228
2013-9-3,66,60,55,63,57,52,100,89,65,30.03,29.91,29.81,10,6,0,15,4,21,0.01,6,Fog,276
2013-9-4,75,64,53,57,55,53,100,83,48,30.13,30.08,30.04,10,9,4,12,5,20,0.00,4,,249
2013-9-5,72,62,51,58,48,39,97,63,32,30.23,30.11,30.03,10,10,10,14,7,23,0.00,2,,304
2013-9-6,72,54,37,45,38,29,100,69,23,30.32,30.25,30.18,10,9,1,7,3,,0.00,0,,348
2013-9-7,79,58,42,57,47,41,97,68,31,30.17,30.07,29.96,10,10,10,10,2,,0.00,2,Rain,237
2013-9-8,75,64,51,63,58,50,96,79,51,30.13,29.99,29.92,10,10,10,12,5,,0.00,5,,351
2013-9-9,71,56,42,61,52,42,100,81,52,30.21,30.15,30.12,10,9,1,8,5,,0.03,4,Rain,12
2013-9-10,89,72,55,73,62,55,100,92,55,30.15,30.11,30.08,10,4,0,13,3,22,0.01,1,Fog,269
2013-9-11,89,78,69,73,71,66,100,85,55,30.19,30.12,30.04,10,6,2,12,6,25,0.12,2,Rain-Thunderstorm,219
2013-9-12,79,70,60,72,67,58,100,95,74,30.05,29.92,29.79,10,5,0,16,5,36,0.31,6,Fog-Rain-Thunderstorm,222
2013-9-13,64,56,50,57,50,41,100,80,54,30.02,29.88,29.80,10,9,0,14,5,22,0.01,6,Fog-Rain,319
2013-9-14,64,54,44,45,43,38,96,72,38,30.19,30.11,30.02,10,10,10,10,6,,0.00,5,,321
2013-9-15,71,53,37,53,42,37,100,86,36,30.26,30.18,30.10,10,6,0,9,1,,0.00,2,Fog,330
2013-9-16,69,60,48,55,51,45,100,83,47,30.34,30.18,30.09,10,9,0,13,3,17,0.07,6,Fog-Rain,345
2013-9-17,64,50,35,43,37,30,100,71,28,30.48,30.39,30.34,10,9,2,9,5,,0.00,0,,36
2013-9-18,72,52,33,46,39,33,100,82,33,30.35,30.28,30.19,10,8,0,9,5,,0.00,1,Fog,17
2013-9-19,75,58,42,59,51,42,100,83,55,30.20,30.15,30.09,10,9,2,8,3,,0.00,4,,355
2013-9-20,80,63,48,61,56,49,100,87,54,30.10,30.03,29.89,10,5,0,9,2,,0.01,3,Fog,74
2013-9-21,66,60,55,63,59,55,100,97,88,29.89,29.76,29.69,10,8,2,14,3,23,0.52,7,Rain,266
2013-9-22,62,54,48,54,47,42,100,80,51,30.02,29.89,29.77,10,9,1,13,4,18,0.00,7,,314
2013-9-23,61,53,43,44,41,38,97,70,46,30.15,30.11,30.03,10,10,10,10,3,,0.00,5,,349
2013-9-24,72,53,35,49,40,34,100,88,26,30.17,30.11,30.00,10,4,0,8,1,,0.00,1,Fog,349
2013-9-25,72,54,37,50,42,34,100,83,26,30.05,30.00,29.94,10,6,0,7,2,,0.00,0,Fog,21
2013-9-26,73,56,39,52,45,39,100,85,30,30.14,30.05,30.00,10,6,0,6,2,,0.00,1,Fog,33
2013-9-27,72,58,44,52,48,45,100,82,41,30.26,30.21,30.14,10,8,0,7,5,,0.00,3,Fog,29
2013-9-28,66,53,42,53,47,43,100,88,54,30.36,30.30,30.25,10,7,0,7,3,,0.02,5,Fog,34
2013-9-29,71,55,39,51,46,39,100,86,45,30.22,30.16,30.07,10,5,0,6,4,,0.00,2,Fog,22
2013-9-30,73,58,42,58,48,43,100,91,51,30.11,30.07,30.00,10,5,0,8,3,,0.01,5,Fog,348